OK,73,32,621,73,2014-10-01T01:40:00,0,28071948,187218
OK,73,32,621,73,2014-10-01T01:45:00,0,28072391,187218
OK,73,32,621,73,2014-10-01T01:50:00,0,28072840,187218
OK,73,32,621,73,2014-10-01T01:55:00,0,28073287,187218
OK,73,32,621,73,2014-10-01T02:00:00,0,28073735,187218
OK,73,32,621,73,2014-10-01T02:05:00,0,28074053,187218
OK,73,32,621,73,2014-10-01T02:10:00,0,28074502,187218
OK,73,32,621,73,2014-10-01T02:15:00,0,28074942,187218
OK,73,32,621,73,2014-10-01T02:20:00,0,28075391,187218
OK,73,32,621,73,2014-10-01T02:25:00,0,28075840,187218
OK,73,32,621,73,2014-10-01T02:30:00,0,28076223,187218
OK,73,32,621,73,2014-10-01T02:35:00,0,28076672,187218
OK,73,32,621,73,2014-10-01T02:40:00,0,28077121,187218
OK,73,32,621,73,2014-10-01T02:45:00,0,28077570,187218
OK,73,32,621,73,2014-10-01T02:50:00,0,28077973,187218
OK,73,32,621,73,2014-10-01T02:55:00,0,28078422,187218
OK,73,32,621,73,2014-10-01T03:00:00,0,28078867,187218
OK,73,32,621,73,2014-10-01T03:05:00,0,28079315,187218
OK,73,32,621,73,2014-10-01T03:10:00,0,28079758,187218
OK,73,32,621,73,2014-10-01T03:15:00,0,28080207,187218
OK,73,32,621,73,2014-10-01T03:20:00,0,28080541,187218
OK,73,32,621,73,2014-10-01T03:25:00,0,28080990,187218
OK,73,32,621,73,2014-10-01T03:30:00,0,28081439,187218
OK,73,32,621,73,2014-10-01T03:35:00,0,28081886,187218
OK,73,32,621,73,2014-10-01T03:40:00,0,28082335,187218
OK,73,32,621,73,2014-10-01T03:45:00,0,28082768,187218
OK,73,32,621,73,2014-10-01T03:50:00,0,28083200,187218
OK,73,32,621,73,2014-10-01T03:55:00,0,28083649,187218
OK,206,11,621,206,2014-10-01T04:00:00,2,28084098,187218
OK,133,17,621,133,2014-10-01T04:05:00,1,28084539,187218
OK,133,17,621,133,2014-10-01T04:10:00,0,28084964,187218
OK,80,29,621,80,2014-10-01T04:15:00,5,28085413,187218
OK,94,25,621,94,2014-10-01T04:20:00,6,28085858,187218
OK,122,19,621,122,2014-10-01T04:25:00,1,28086307,187218
OK,122,19,621,122,2014-10-01T04:30:00,0,28086749,187218
OK,122,19,621,122,2014-10-01T04:35:00,0,28087198,187218
OK,82,28,621,82,2014-10-01T04:40:00,5,28087643,187218
OK,90,26,621,90,2014-10-01T04:45:00,0,28088092,187218
OK,63,37,621,63,2014-10-01T04:50:00,1,28088516,187218
OK,69,34,621,69,2014-10-01T04:55:00,1,28088965,187218
OK,107,21,621,107,2014-10-01T05:00:00,3,28089395,187218
OK,107,21,621,107,2014-10-01T05:05:00,5,28089844,187218
OK,129,18,621,129,2014-10-01T05:10:00,5,28090293,187218
OK,130,18,621,130,2014-10-01T05:15:00,4,28090637,187218
OK,127,18,621,127,2014-10-01T05:20:00,5,28091086,187218
OK,121,19,621,121,2014-10-01T05:25:00,8,28091535,187218
OK,121,19,621,121,2014-10-01T05:30:00,2,28091952,187218
OK,121,19,621,121,2014-10-01T05:35:00,0,28092401,187218
OK,76,30,621,76,2014-10-01T05:40:00,3,28092845,187218
OK,163,14,621,163,2014-10-01T05:45:00,5,28093286,187218
OK,113,20,621,113,2014-10-01T05:50:00,9,28093717,187218
OK,100,23,621,100,2014-10-01T05:55:00,7,28094166,187218
OK,133,17,621,133,2014-10-01T06:00:00,5,28094577,187218
OK,151,15,621,151,2014-10-01T06:05:00,8,28095022,187218
OK,169,13,621,169,2014-10-01T06:10:00,5,28095469,187218
OK,183,12,621,183,2014-10-01T06:15:00,2,28095918,187218
OK,183,12,621,183,2014-10-01T06:20:00,2,28096331,187218
OK,170,13,621,170,2014-10-01T06:25:00,4,28096780,187218
OK,96,24,621,96,2014-10-01T06:30:00,3,28097214,187218
OK,194,12,621,194,2014-10-01T06:35:00,2,28097663,187218
OK,166,14,621,166,2014-10-01T06:40:00,1,28098112,187218
OK,180,13,621,180,2014-10-01T06:45:00,4,28098549,187218
OK,88,26,621,88,2014-10-01T06:50:00,1,28098993,187218
OK,105,22,621,105,2014-10-01T06:55:00,2,28099441,187218
OK,122,19,621,122,2014-10-01T07:00:00,1,28099784,187218
OK,122,19,621,122,2014-10-01T07:05:00,0,28100233,187218
OK,79,29,621,79,2014-10-01T07:10:00,2,28100540,187218
OK,79,29,621,79,2014-10-01T07:15:00,2,28100989,187218
OK,99,23,621,99,2014-10-01T07:20:00,1,28101360,187218
OK,87,27,621,87,2014-10-01T07:25:00,4,28101809,187218
OK,103,22,621,103,2014-10-01T07:30:00,3,28102245,187218
OK,107,21,621,107,2014-10-01T07:35:00,0,28102694,187218
OK,134,17,621,134,2014-10-01T07:40:00,4,28103122,187218
OK,183,12,621,183,2014-10-01T07:45:00,6,28103568,187218
OK,104,22,621,104,2014-10-01T07:50:00,5,28104013,187218
OK,103,22,621,103,2014-10-01T07:55:00,5,28104458,187218
OK,138,17,621,138,2014-10-01T08:00:00,2,28104899,187218
OK,146,16,621,146,2014-10-01T08:05:00,3,28105344,187218
OK,97,24,621,97,2014-10-01T08:10:00,5,28105784,187218
OK,175,13,621,175,2014-10-01T08:15:00,3,28106233,187218
OK,123,19,621,123,2014-10-01T08:20:00,5,28106670,187218
OK,80,29,621,80,2014-10-01T08:25:00,3,28107076,187218
OK,114,20,621,114,2014-10-01T08:30:00,1,28107508,187218
OK,114,20,621,114,2014-10-01T08:35:00,0,28107957,187218
OK,95,24,621,95,2014-10-01T08:40:00,2,28108396,187218
OK,80,29,621,80,2014-10-01T08:45:00,2,28108845,187218
OK,95,24,621,95,2014-10-01T08:50:00,1,28109273,187218
OK,95,24,621,95,2014-10-01T08:55:00,3,28109722,187218
OK,88,26,621,88,2014-10-01T09:00:00,3,28110065,187218
OK,93,25,621,93,2014-10-01T09:05:00,3,28110514,187218
OK,83,28,621,83,2014-10-01T09:10:00,3,28110937,187218
OK,80,29,621,80,2014-10-01T09:15:00,2,28111386,187218
OK,114,20,621,114,2014-10-01T09:20:00,1,28111815,187218
OK,118,19,621,118,2014-10-01T09:25:00,1,28112264,187218
OK,118,19,621,118,2014-10-01T09:30:00,1,28112605,187218
OK,144,16,621,144,2014-10-01T09:35:00,2,28113054,187218
OK,76,30,621,76,2014-10-01T09:40:00,1,28113478,187218
OK,76,30,621,76,2014-10-01T09:45:00,1,28113927,187218
OK,76,30,621,76,2014-10-01T09:50:00,0,28114359,187218
OK,76,30,621,76,2014-10-01T09:55:00,0,28114808,187218
OK,78,30,621,78,2014-10-01T10:00:00,2,28115162,187218
OK,78,30,621,78,2014-10-01T10:05:00,2,28115611,187218
OK,123,19,621,123,2014-10-01T10:10:00,2,28116023,187218
OK,84,27,621,84,2014-10-01T10:15:00,3,28116472,187218
OK,120,19,621,120,2014-10-01T10:20:00,0,28116880,187218
OK,106,22,621,106,2014-10-01T10:25:00,4,28117329,187218
OK,107,21,621,107,2014-10-01T10:30:00,6,28117754,187218
OK,95,24,621,95,2014-10-01T10:35:00,4,28118203,187218
OK,126,18,621,126,2014-10-01T10:40:00,0,28118648,187218
OK,98,23,621,98,2014-10-01T10:45:00,2,28119095,187218
OK,92,25,621,92,2014-10-01T10:50:00,7,28119539,187218
OK,100,23,621,100,2014-10-01T10:55:00,9,28119987,187218
OK,104,22,621,104,2014-10-01T11:00:00,2,28120435,187218
OK,197,11,621,197,2014-10-01T11:05:00,3,28120884,187218
OK,197,11,621,197,2014-10-01T11:10:00,3,28121267,187218
OK,81,29,621,81,2014-10-01T11:15:00,2,28121716,187218
OK,98,23,621,98,2014-10-01T11:20:00,4,28122154,187218
OK,114,20,621,114,2014-10-01T11:25:00,3,28122603,187218
OK,113,20,621,113,2014-10-01T11:30:00,5,28123044,187218
OK,113,20,621,113,2014-10-01T11:35:00,3,28123493,187218
OK,90,26,621,90,2014-10-01T11:40:00,3,28123925,187218
OK,83,28,621,83,2014-10-01T11:45:00,4,28124374,187218
OK,77,30,621,77,2014-10-01T11:50:00,1,28124776,187218
OK,116,20,621,116,2014-10-01T11:55:00,2,28125225,187218
OK,46,51,621,46,2014-10-01T12:00:00,1,28125654,187218
OK,46,51,621,46,2014-10-01T12:05:00,0,28126103,187218
OK,75,31,621,75,2014-10-01T12:10:00,1,28126455,187218
OK,72,32,621,72,2014-10-01T12:15:00,4,28126904,187218
OK,70,33,621,70,2014-10-01T12:20:00,6,28127353,187218
OK,133,17,621,133,2014-10-01T12:25:00,5,28127802,187218
OK,161,14,621,161,2014-10-01T12:30:00,0,28128230,187218
OK,161,14,621,161,2014-10-01T12:35:00,0,28128679,187218
OK,135,17,621,135,2014-10-01T12:40:00,1,28129114,187218
OK,103,22,621,103,2014-10-01T12:45:00,2,28129563,187218
OK,65,36,621,65,2014-10-01T12:50:00,2,28129997,187218
OK,96,24,621,96,2014-10-01T12:55:00,2,28130446,187218
OK,134,17,621,134,2014-10-01T13:00:00,1,28130874,187218
OK,73,32,621,73,2014-10-01T13:05:00,2,28131323,187218
OK,94,25,621,94,2014-10-01T13:10:00,3,28131760,187218
OK,80,29,621,80,2014-10-01T13:15:00,2,28132209,187218
OK,61,38,621,61,2014-10-01T13:20:00,1,28132647,187218
OK,46,51,621,46,2014-10-01T13:25:00,1,28133094,187218
OK,61,38,621,61,2014-10-01T13:30:00,0,28133532,187218
OK,62,37,621,62,2014-10-01T13:35:00,1,28133981,187218
OK,62,37,621,62,2014-10-01T13:40:00,1,28134420,187218
OK,89,26,621,89,2014-10-01T13:45:00,2,28134869,187218
OK,94,25,621,94,2014-10-01T13:50:00,2,28135288,187218
OK,53,44,621,53,2014-10-01T13:55:00,2,28135737,187218
OK,99,23,621,99,2014-10-01T14:00:00,5,28136174,187218
OK,99,23,621,99,2014-10-01T14:05:00,5,28136623,187218
OK,71,33,621,71,2014-10-01T14:10:00,1,28137063,187218
OK,82,28,621,82,2014-10-01T14:15:00,1,28137512,187218
OK,73,32,621,73,2014-10-01T14:20:00,2,28137946,187218
OK,66,35,621,66,2014-10-01T14:25:00,2,28138395,187218
OK,69,34,621,69,2014-10-01T14:30:00,1,28138823,187218
OK,114,20,621,114,2014-10-01T14:35:00,1,28139272,187218
OK,144,16,621,144,2014-10-01T14:40:00,2,28139683,187218
OK,174,13,621,174,2014-10-01T14:45:00,1,28140132,187218
OK,64,36,621,64,2014-10-01T14:50:00,2,28140574,187218
OK,64,36,621,64,2014-10-01T14:55:00,2,28141023,187218
OK,136,17,621,136,2014-10-01T15:00:00,1,28141449,187218
OK,136,17,621,136,2014-10-01T15:05:00,1,28141898,187218
OK,136,17,621,136,2014-10-01T15:10:00,0,28142326,187218
OK,179,13,621,179,2014-10-01T15:15:00,1,28142775,187218
OK,129,18,621,129,2014-10-01T15:20:00,2,28143202,187218
OK,154,15,621,154,2014-10-01T15:25:00,1,28143651,187218
OK,154,15,621,154,2014-10-01T15:30:00,1,28144099,187218
OK,57,41,621,57,2014-10-01T15:35:00,1,28144548,187218
OK,91,25,621,91,2014-10-01T15:40:00,2,28144969,187218
OK,92,25,621,92,2014-10-01T15:45:00,2,28145383,187218
OK,59,39,621,59,2014-10-01T15:50:00,1,28145832,187218
OK,121,19,621,121,2014-10-01T15:55:00,1,28146281,187218
OK,148,15,621,148,2014-10-01T16:00:00,2,28146730,187218
OK,175,13,621,175,2014-10-01T16:05:00,0,28147138,187218
OK,72,32,621,72,2014-10-01T16:10:00,2,28147582,187218
OK,72,32,621,72,2014-10-01T16:15:00,2,28148031,187218
OK,169,13,621,169,2014-10-01T16:20:00,1,28148432,187218
OK,140,16,621,140,2014-10-01T16:25:00,2,28148881,187218
OK,112,20,621,112,2014-10-01T16:30:00,1,28149320,187218
OK,62,37,621,62,2014-10-01T16:35:00,1,28149769,187218
OK,62,37,621,62,2014-10-01T16:40:00,1,28150195,187218
OK,62,37,621,62,2014-10-01T16:45:00,0,28150644,187218
OK,62,37,621,62,2014-10-01T16:50:00,0,28151062,187218
OK,62,37,621,62,2014-10-01T16:55:00,0,28151511,187218
OK,62,37,621,62,2014-10-01T17:05:00,0,28151960,187218
OK,99,23,621,99,2014-10-01T17:10:00,2,28152409,187218
OK,99,23,621,99,2014-10-01T17:15:00,2,28152855,187218
OK,67,35,621,67,2014-10-01T17:20:00,1,28153302,187218
OK,67,35,621,67,2014-10-01T17:25:00,1,28153751,187218
OK,122,19,621,122,2014-10-01T17:30:00,1,28154161,187218
OK,63,37,621,63,2014-10-01T17:35:00,1,28154610,187218
OK,122,19,621,122,2014-10-01T17:40:00,0,28155052,187218
OK,95,24,621,95,2014-10-01T17:45:00,1,28155500,187218
OK,95,24,621,95,2014-10-01T17:50:00,1,28155918,187218
OK,62,37,621,62,2014-10-01T17:55:00,1,28156367,187218
OK,62,37,621,62,2014-10-01T18:00:00,0,28156815,187218
OK,62,37,621,62,2014-10-01T18:05:00,0,28157254,187218
OK,62,37,621,62,2014-10-01T18:10:00,0,28157684,187218
OK,136,17,621,136,2014-10-01T18:15:00,1,28158132,187218
OK,208,11,621,208,2014-10-01T18:20:00,1,28158576,187218
OK,208,11,621,208,2014-10-01T18:25:00,1,28159022,187218
OK,208,11,621,208,2014-10-01T18:30:00,0,28159468,187218
OK,208,11,621,208,2014-10-01T18:35:00,0,28159803,187218
OK,208,11,621,208,2014-10-01T18:40:00,0,28160252,187218
OK,74,31,621,74,2014-10-01T18:45:00,2,28160701,187218
OK,74,31,621,74,2014-10-01T18:50:00,1,28161139,187218
OK,74,31,621,74,2014-10-01T18:55:00,0,28161588,187218
OK,74,31,621,74,2014-10-01T19:00:00,0,28162005,187218
OK,74,31,621,74,2014-10-01T19:05:00,0,28162454,187218
OK,74,31,621,74,2014-10-01T19:10:00,0,28162848,187218
OK,79,29,621,79,2014-10-01T19:15:00,3,28163287,187218
OK,79,29,621,79,2014-10-01T19:20:00,3,28163735,187218
OK,79,29,621,79,2014-10-01T19:25:00,0,28164184,187218
OK,79,29,621,79,2014-10-01T19:30:00,0,28164615,187218
OK,79,29,621,79,2014-10-01T19:35:00,0,28165064,187218
OK,79,29,621,79,2014-10-01T19:40:00,0,28165489,187218
OK,79,29,621,79,2014-10-01T19:45:00,0,28165937,187218
OK,79,29,621,79,2014-10-01T19:50:00,0,28166378,187218
OK,79,29,621,79,2014-10-01T19:55:00,0,28166740,187218
OK,79,29,621,79,2014-10-01T20:00:00,0,28167189,187218
OK,79,29,621,79,2014-10-01T20:05:00,0,28167618,187218
OK,79,29,621,79,2014-10-01T20:10:00,0,28168051,187218
OK,79,29,621,79,2014-10-01T20:15:00,0,28168500,187218
OK,79,29,621,79,2014-10-01T20:20:00,0,28168945,187218
OK,79,29,621,79,2014-10-01T20:25:00,0,28169394,187218
OK,79,29,621,79,2014-10-01T20:30:00,0,28169842,187218
OK,79,29,621,79,2014-10-01T20:35:00,0,28170268,187218
OK,79,29,621,79,2014-10-01T20:40:00,0,28170713,187218
OK,79,29,621,79,2014-10-01T20:45:00,0,28171161,187218
OK,79,29,621,79,2014-10-01T20:50:00,0,28171598,187218
OK,79,29,621,79,2014-10-01T20:55:00,0,28172044,187218
OK,79,29,621,79,2014-10-01T21:00:00,0,28172492,187218
OK,79,29,621,79,2014-10-01T21:05:00,0,28172938,187218
OK,79,29,621,79,2014-10-01T21:10:00,0,28173384,187218
OK,79,29,621,79,2014-10-01T21:15:00,0,28173833,187218
OK,79,29,621,79,2014-10-01T21:20:00,0,28174274,187218
OK,79,29,621,79,2014-10-01T21:25:00,0,28174723,187218
OK,79,29,621,79,2014-10-01T21:30:00,0,28175149,187218
OK,79,29,621,79,2014-10-01T21:35:00,0,28175545,187218
OK,79,29,621,79,2014-10-01T21:40:00,0,28175994,187218
OK,79,29,621,79,2014-10-01T21:45:00,0,28176443,187218
OK,79,29,621,79,2014-10-01T21:50:00,0,28176892,187218
OK,79,29,621,79,2014-10-01T21:55:00,0,28177248,187218
OK,79,29,621,79,2014-10-01T22:00:00,0,28177688,187218
OK,79,29,621,79,2014-10-01T22:05:00,0,28178134,187218
OK,79,29,621,79,2014-10-01T22:10:00,0,28178583,187218
OK,79,29,621,79,2014-10-01T22:15:00,0,28179030,187218
OK,79,29,621,79,2014-10-01T22:20:00,0,28179464,187218
OK,79,29,621,79,2014-10-01T22:25:00,0,28179907,187218
OK,79,29,621,79,2014-10-01T22:30:00,0,28180354,187218
OK,79,29,621,79,2014-10-01T22:35:00,0,28180752,187218
OK,79,29,621,79,2014-10-01T22:40:00,0,28181201,187218
OK,79,29,621,79,2014-10-01T22:45:00,0,28181625,187218
OK,79,29,621,79,2014-10-01T22:50:00,0,28182073,187218
OK,79,29,621,79,2014-10-01T22:55:00,0,28182520,187218
OK,79,29,621,79,2014-10-01T23:00:00,0,28182969,187218
OK,79,29,621,79,2014-10-01T23:05:00,0,28183386,187218
OK,79,29,621,79,2014-10-01T23:10:00,0,28183819,187218
OK,79,29,621,79,2014-10-01T23:15:00,0,28184264,187218
OK,79,29,621,79,2014-10-01T23:20:00,0,28184713,187218
OK,79,29,621,79,2014-10-01T23:25:00,0,28185148,187218
OK,79,29,621,79,2014-10-01T23:30:00,0,28185596,187218
OK,79,29,621,79,2014-10-01T23:35:00,0,28186027,187218
OK,79,29,621,79,2014-10-01T23:40:00,0,28186419,187218
OK,79,29,621,79,2014-10-01T23:45:00,0,28186868,187218
OK,79,29,621,79,2014-10-01T23:50:00,0,28187266,187218
OK,79,29,621,79,2014-10-01T23:55:00,0,28187708,187218
OK,79,29,621,79,2014-10-02T00:00:00,0,28188157,187218
OK,79,29,621,79,2014-10-02T00:05:00,0,28188598,187218
OK,79,29,621,79,2014-10-02T00:10:00,0,28189034,187218
OK,79,29,621,79,2014-10-02T00:15:00,0,28189483,187218
OK,79,29,621,79,2014-10-02T00:20:00,0,28189905,187218
OK,79,29,621,79,2014-10-02T00:25:00,0,28190353,187218
OK,79,29,621,79,2014-10-02T00:30:00,0,28190707,187218
OK,79,29,621,79,2014-10-02T00:35:00,0,28191156,187218
OK,79,29,621,79,2014-10-02T00:40:00,0,28191605,187218
OK,79,29,621,79,2014-10-02T00:45:00,0,28191911,187218
OK,79,29,621,79,2014-10-02T00:50:00,0,28192360,187218
OK,79,29,621,79,2014-10-02T00:55:00,0,28192793,187218
OK,79,29,621,79,2014-10-02T01:05:00,0,28193604,187218
OK,79,29,621,79,2014-10-02T01:10:00,0,28194053,187218
OK,79,29,621,79,2014-10-02T01:15:00,0,28194502,187218
OK,79,29,621,79,2014-10-02T01:20:00,0,28194950,187218
OK,79,29,621,79,2014-10-02T01:25:00,0,28195187,187218
OK,79,29,621,79,2014-10-02T01:30:00,0,28195636,187218
OK,79,29,621,79,2014-10-02T01:35:00,0,28196085,187218
OK,79,29,621,79,2014-10-02T01:40:00,0,28196369,187218
OK,79,29,621,79,2014-10-02T01:45:00,0,28196818,187218
OK,79,29,621,79,2014-10-02T01:50:00,0,28197241,187218
OK,79,29,621,79,2014-10-02T01:55:00,0,28197690,187218
OK,79,29,621,79,2014-10-02T02:00:00,0,28198138,187218
OK,79,29,621,79,2014-10-02T02:05:00,0,28198586,187218
OK,79,29,621,79,2014-10-02T02:10:00,0,28199035,187218
OK,79,29,621,79,2014-10-02T02:15:00,0,28199407,187218
OK,79,29,621,79,2014-10-02T02:20:00,0,28199849,187218
OK,79,29,621,79,2014-10-02T02:25:00,0,28200291,187218
OK,79,29,621,79,2014-10-02T02:30:00,0,28200734,187218
OK,79,29,621,79,2014-10-02T02:35:00,0,28201183,187218
OK,79,29,621,79,2014-10-02T02:45:00,0,28201614,187218
OK,79,29,621,79,2014-10-02T02:50:00,0,28202063,187218
OK,79,29,621,79,2014-10-02T02:55:00,0,28202512,187218
OK,79,29,621,79,2014-10-02T03:00:00,0,28202954,187218
OK,79,29,621,79,2014-10-02T03:05:00,0,28203402,187218
OK,79,29,621,79,2014-10-02T03:10:00,0,28203837,187218
OK,79,29,621,79,2014-10-02T03:30:00,0,28204286,187218
OK,79,29,621,79,2014-10-02T03:35:00,0,28204735,187218
OK,79,29,621,79,2014-10-02T03:40:00,0,28205184,187218
OK,79,29,621,79,2014-10-02T03:45:00,0,28205612,187218
OK,79,29,621,79,2014-10-02T03:55:00,0,28206442,187218
OK,79,29,621,79,2014-10-02T04:00:00,0,28206891,187218
OK,79,29,621,79,2014-10-02T04:05:00,0,28207340,187218
OK,79,29,621,79,2014-10-02T04:10:00,0,28207759,187218
OK,79,29,621,79,2014-10-02T04:15:00,0,28208208,187218
OK,79,29,621,79,2014-10-02T04:20:00,0,28208635,187218
OK,79,29,621,79,2014-10-02T04:25:00,0,28209084,187218
OK,110,21,621,110,2014-10-02T04:30:00,5,28209522,187218
OK,124,18,621,124,2014-10-02T04:35:00,3,28209971,187218
OK,107,21,621,107,2014-10-02T04:40:00,4,28210394,187218
OK,107,21,621,107,2014-10-02T04:45:00,2,28210843,187218
OK,107,21,621,107,2014-10-02T04:50:00,0,28211268,187218
OK,38,61,621,38,2014-10-02T04:55:00,1,28211712,187218
OK,38,61,621,38,2014-10-02T05:00:00,0,28212090,187218
OK,64,36,621,64,2014-10-02T05:05:00,2,28212539,187218
OK,87,27,621,87,2014-10-02T05:10:00,1,28212968,187218
OK,148,15,621,148,2014-10-02T05:15:00,1,28213417,187218
OK,148,15,621,148,2014-10-02T05:20:00,0,28213855,187218
OK,140,16,621,140,2014-10-02T05:25:00,6,28214304,187218
OK,96,24,621,96,2014-10-02T05:30:00,1,28214717,187218
OK,96,24,621,96,2014-10-02T05:35:00,0,28215166,187218
OK,102,23,621,102,2014-10-02T05:40:00,7,28215582,187218
OK,162,14,621,162,2014-10-02T05:45:00,3,28216031,187218
OK,190,12,621,190,2014-10-02T05:50:00,0,28216370,187218
OK,226,10,621,226,2014-10-02T05:55:00,4,28216810,187218
OK,232,10,621,232,2014-10-02T06:00:00,3,28217257,187218
OK,201,11,621,201,2014-10-02T06:05:00,1,28217706,187218
OK,201,11,621,201,2014-10-02T06:10:00,0,28218145,187218
OK,161,14,621,161,2014-10-02T06:15:00,3,28218594,187218
OK,160,14,621,160,2014-10-02T06:20:00,9,28219014,187218
OK,159,14,621,159,2014-10-02T06:25:00,14,28219463,187218
OK,160,14,621,160,2014-10-02T06:30:00,9,28219836,187218
OK,110,21,621,110,2014-10-02T06:35:00,6,28220285,187218
OK,109,21,621,109,2014-10-02T06:40:00,5,28220719,187218
OK,120,19,621,120,2014-10-02T06:45:00,5,28221168,187218
OK,189,12,621,189,2014-10-02T07:00:00,1,28221835,187218
OK,183,12,621,183,2014-10-02T07:05:00,2,28221981,187218
OK,122,19,621,122,2014-10-02T07:10:00,3,28222429,187218
OK,61,38,621,61,2014-10-02T07:15:00,1,28222878,187218
OK,61,38,621,61,2014-10-02T07:20:00,0,28223309,187218
OK,84,27,621,84,2014-10-02T07:25:00,5,28223744,187218
OK,82,28,621,82,2014-10-02T07:30:00,2,28224192,187218
OK,147,15,621,147,2014-10-02T07:35:00,2,28224547,187218
OK,147,15,621,147,2014-10-02T07:40:00,0,28224996,187218
OK,102,23,621,102,2014-10-02T07:50:00,3,28225767,187218
OK,168,13,621,168,2014-10-02T07:55:00,4,28226216,187218
OK,212,11,621,212,2014-10-02T08:00:00,0,28226657,187218
OK,123,19,621,123,2014-10-02T08:05:00,2,28227106,187218
OK,135,17,621,135,2014-10-02T08:10:00,0,28227521,187218
OK,134,17,621,134,2014-10-02T08:15:00,7,28227970,187218
OK,133,17,621,133,2014-10-02T08:20:00,2,28228329,187218
OK,107,21,621,107,2014-10-02T08:25:00,3,28228778,187218
OK,100,23,621,100,2014-10-02T08:30:00,2,28229188,187218
OK,99,23,621,99,2014-10-02T08:35:00,3,28229637,187218
OK,18,130,621,18,2014-10-02T08:40:00,1,28229987,187218
OK,18,130,621,18,2014-10-02T08:45:00,0,28230436,187218
OK,166,14,621,166,2014-10-02T08:50:00,1,28230802,187218
OK,166,14,621,166,2014-10-02T08:55:00,0,28231250,187218
OK,126,18,621,126,2014-10-02T09:00:00,6,28231674,187218
OK,126,18,621,126,2014-10-02T09:05:00,2,28232123,187218
OK,134,17,621,134,2014-10-02T09:15:00,2,28232465,187218
OK,134,17,621,134,2014-10-02T09:20:00,2,28232914,187218
OK,105,22,621,105,2014-10-02T09:25:00,2,28233363,187218
OK,113,20,621,113,2014-10-02T09:30:00,0,28233787,187218
OK,113,20,621,113,2014-10-02T09:35:00,2,28234236,187218
OK,118,19,621,118,2014-10-02T09:40:00,0,28234569,187218
OK,130,18,621,130,2014-10-02T09:45:00,1,28235018,187218
OK,130,18,621,130,2014-10-02T09:50:00,0,28235445,187218
OK,130,18,621,130,2014-10-02T09:55:00,0,28235894,187218
OK,130,18,621,130,2014-10-02T10:00:00,0,28236337,187218
OK,130,18,621,130,2014-10-02T10:05:00,0,28236784,187218
OK,241,9,621,241,2014-10-02T10:15:00,0,28237634,187218
OK,241,9,621,241,2014-10-02T10:20:00,0,28238083,187218
OK,241,9,621,241,2014-10-02T10:25:00,0,28238530,187218
OK,241,9,621,241,2014-10-02T10:30:00,0,28238971,187218
OK,104,22,621,104,2014-10-02T10:35:00,1,28239420,187218
OK,104,22,621,104,2014-10-02T10:40:00,0,28239850,187218
OK,171,13,621,171,2014-10-02T10:45:00,3,28240299,187218
OK,171,13,621,171,2014-10-02T10:50:00,3,28240743,187218
OK,179,13,621,179,2014-10-02T10:55:00,5,28241192,187218
OK,180,13,621,180,2014-10-02T11:00:00,3,28241624,187218
OK,180,13,621,180,2014-10-02T11:05:00,0,28242072,187218
OK,126,18,621,126,2014-10-02T11:10:00,5,28242468,187218
OK,136,17,621,136,2014-10-02T11:15:00,4,28242917,187218
OK,123,19,621,123,2014-10-02T11:20:00,3,28243366,187218
OK,106,22,621,106,2014-10-02T11:25:00,1,28243691,187218
OK,106,22,621,106,2014-10-02T11:30:00,0,28244129,187218
OK,124,18,621,124,2014-10-02T11:35:00,4,28244558,187218
OK,120,19,621,120,2014-10-02T11:40:00,2,28245007,187218
OK,89,26,621,89,2014-10-02T11:45:00,0,28245456,187218
OK,133,17,621,133,2014-10-02T11:50:00,3,28245862,187218
OK,100,23,621,100,2014-10-02T11:55:00,3,28246311,187218
OK,117,20,621,117,2014-10-02T12:00:00,3,28246748,187218
OK,125,18,621,125,2014-10-02T12:05:00,2,28247197,187218
OK,117,20,621,117,2014-10-02T12:10:00,0,28247643,187218
OK,122,19,621,122,2014-10-02T12:15:00,5,28248073,187218
OK,123,19,621,123,2014-10-02T12:20:00,3,28248522,187218
OK,138,17,621,138,2014-10-02T12:25:00,1,28248969,187218
OK,138,17,621,138,2014-10-02T12:30:00,1,28249397,187218
OK,107,21,621,107,2014-10-02T12:35:00,2,28249841,187218
OK,126,18,621,126,2014-10-02T12:45:00,4,28250658,187218
OK,111,21,621,111,2014-10-02T12:50:00,1,28251438,187218
OK,130,18,621,130,2014-10-02T13:00:00,2,28251478,187218
OK,116,20,621,116,2014-10-02T13:20:00,3,28251518,187218
OK,115,20,621,115,2014-10-02T13:30:00,0,28251983,187218
OK,115,20,621,115,2014-10-02T13:35:00,0,28252120,187218
OK,115,20,621,115,2014-10-02T13:40:00,0,28252567,187218
OK,91,25,621,91,2014-10-02T13:45:00,1,28253009,187218
OK,91,25,621,91,2014-10-02T13:50:00,0,28253426,187218
OK,109,21,621,109,2014-10-02T13:55:00,1,28253875,187218
OK,109,21,621,109,2014-10-02T14:10:00,0,28254606,187218
OK,133,17,621,133,2014-10-02T14:15:00,1,28254729,187218
OK,133,17,621,133,2014-10-02T14:20:00,1,28255178,187218
OK,133,17,621,133,2014-10-02T14:25:00,0,28255627,187218
OK,91,25,621,91,2014-10-02T14:30:00,2,28256055,187218
OK,91,25,621,91,2014-10-02T14:35:00,0,28256504,187218
OK,91,25,621,91,2014-10-02T14:40:00,0,28256932,187218
OK,114,20,621,114,2014-10-02T14:45:00,3,28257381,187218
OK,114,20,621,114,2014-10-02T14:50:00,0,28257822,187218
OK,114,20,621,114,2014-10-02T14:55:00,0,28258270,187218
OK,206,11,621,206,2014-10-02T15:00:00,2,28258703,187218